Location: Baix
(44.7118°N, 4.7648°E)
Time: 03:09:36
(UTC+00:00)

Cosmos 1538 Rocket - Pass Details

Date: 07 August 2020
Orbit: 752 x 792 km, 74.0° (Epoch: 25 September)

Event Time Altitude Azimuth Distance (km) Brightness Sun altitude
Rises 01:28:09 0° 336° (NNW) 3,214 7.8 -24.7°
Reaches altitude 10° 01:30:31 10° 335° (NNW) 2,284 6.9 -24.6°
Maximum altitude 01:35:39 70° 253° (WSW) 801 3.8 -24.1°
Enters shadow 01:35:57 68° 227° (SW) 810 3.8 -24.1°
